Location: Kerguer�zec
(48.4509°N, 4.7600°W)
Time: 22:10:14
(UTC+00:00)

Envisat - Visible Passes

Search period start: 26 February 2021 00:00
Search period end: 08 March 2021 00:00
Orbit: 764 x 766 km, 98.1° (Epoch: 26 February)

Date Brightness Start Highest point End Pass type
(mag) Time Alt. Az. Time Alt. Az. Time Alt. Az.
26 Feb 5.9 04:47:32 10° NE 04:50:47 17° E 04:54:00 10° SE visible
26 Feb 3.0 06:25:16 10° N 06:30:22 73° WNW 06:35:25 10° SSW visible
27 Feb 3.8 05:48:29 10° NNE 05:53:31 56° E 05:58:29 10° S visible
27 Feb 6.7 18:50:01 10° WSW 18:51:36 11° W 18:53:12 10° WNW visible
28 Feb 5.2 05:12:07 10° NE 05:16:27 27° E 05:20:46 10° SSE visible
01 Mar 6.1 04:36:44 10° ENE 04:39:12 13° E 04:41:39 10° ESE visible
01 Mar 3.0 06:13:49 10° NNE 06:18:57 89° WNW 06:24:02 10° SSW visible
02 Mar 4.2 05:37:09 10° NNE 05:42:03 45° E 05:46:53 10° S visible
02 Mar 6.4 18:37:18 10° WSW 18:40:01 14° W 18:42:44 10° NW visible
03 Mar 5.5 05:00:58 10° NE 05:04:55 22° E 05:08:51 10° SE visible
04 Mar 6.3 04:26:38 10° ENE 04:27:36 10° E 04:28:34 10° E visible
04 Mar 3.3 06:02:24 10° NNE 06:07:31 75° ESE 06:12:35 10° S visible
05 Mar 4.7 05:25:51 10° NNE 05:30:32 36° E 05:35:12 10° SSE visible
06 Mar 5.9 04:49:54 10° NE 04:53:22 18° E 04:56:48 10° SE visible
07 Mar 3.7 05:51:01 10° NNE 05:56:04 60° ESE 06:01:05 10° S visible
07 Mar 6.8 18:53:22 10° W 18:54:12 10° W 18:55:03 10° WNW visible
